Time,TemperatureF,DewpointF,PressureIn,WindDirection,WindDirectionDegrees,WindSpeedMPH,WindSpeedGustMPH,Humidity,HourlyPrecipIn,Conditions,Clouds,dailyrainin,SoftwareType,DateUTC
2013-04-23 00:01:00,31.3,26.7,30.64,ESE,120,0.0,0.0,83,0.00,CLR,,0.00,WeatherDisplay:10.37,2013-04-23 04:01:00,
2013-04-23 00:02:00,31.3,27.0,30.64,ESE,120,0.0,0.0,84,0.00,CLR,,0.00,WeatherDisplay:10.37,2013-04-23 04:02:00,
2013-04-23 00:07:00,31.2,26.9,30.64,ESE,120,0.0,0.0,84,0.00,CLR,,0.00,WeatherDisplay:10.37,2013-04-23 04:07:00,
2013-04-23 00:12:00,30.9,26.6,30.64,ESE,120,0.0,0.0,84,0.00,CLR,,0.00,WeatherDisplay:10.37,2013-04-23 04:12:00,
2013-04-23 00:17:00,30.7,26.4,30.63,ESE,121,0.0,0.0,84,0.00,CLR,,0.00,WeatherDisplay:10.37,2013-04-23 04:17:00,
2013-04-23 00:22:00,30.7,26.7,30.63,ESE,120,0.0,0.0,85,0.00,CLR,,0.00,WeatherDisplay:10.37,2013-04-23 04:22:00,
2013-04-23 00:27:00,30.6,26.6,30.63,ESE,120,0.0,0.0,85,0.00,CLR,,0.00,WeatherDisplay:10.37,2013-04-23 04:27:00,
2013-04-23 00:32:00,30.6,26.9,30.63,ESE,120,0.4,1.2,86,0.00,CLR,,0.00,WeatherDisplay:10.37,2013-04-23 04:32:00,
2013-04-23 00:37:00,30.4,26.7,30.63,ESE,120,0.0,0.0,86,0.00,CLR,,0.00,WeatherDisplay:10.37,2013-04-23 04:37:00,
2013-04-23 00:42:00,30.4,26.7,30.63,ESE,120,0.0,0.0,86,0.00,CLR,,0.00,WeatherDisplay:10.37,2013-04-23 04:42:00,
2013-04-23 00:47:00,30.4,27.0,30.62,ESE,121,0.0,1.2,87,0.00,CLR,,0.00,WeatherDisplay:10.37,2013-04-23 04:47:00,
2013-04-23 00:52:00,30.3,26.9,30.62,ESE,120,0.0,0.0,87,0.00,CLR,,0.00,WeatherDisplay:10.37,2013-04-23 04:52:00,
2013-04-23 00:57:00,30.1,26.7,30.62,ESE,120,0.0,0.0,87,0.00,CLR,,0.00,WeatherDisplay:10.37,2013-04-23 04:57:00,
2013-04-23 01:02:00,30.0,26.6,30.62,ESE,120,0.0,0.0,87,0.00,CLR,,0.00,WeatherDisplay:10.37,2013-04-23 05:02:00,
2013-04-23 01:07:00,29.8,26.4,30.62,ESE,120,0.0,0.0,87,0.00,CLR,,0.00,WeatherDisplay:10.37,2013-04-23 05:07:00,
2013-04-23 01:12:00,29.8,26.7,30.62,ESE,120,0.0,0.0,88,0.00,CLR,,0.00,WeatherDisplay:10.37,2013-04-23 05:12:00,
2013-04-23 01:17:00,29.7,26.6,30.62,ESE,120,0.2,1.0,88,0.00,CLR,,0.00,WeatherDisplay:10.37,2013-04-23 05:17:00,
2013-04-23 01:22:00,29.5,26.4,30.61,ESE,120,0.0,0.0,88,0.00,CLR,,0.00,WeatherDisplay:10.37,2013-04-23 05:22:00,
2013-04-23 01:27:00,29.4,26.3,30.61,ESE,120,0.0,0.0,88,0.00,CLR,,0.00,WeatherDisplay:10.37,2013-04-23 05:27:00,
2013-04-23 01:32:00,29.2,26.1,30.62,ESE,120,0.0,1.2,88,0.00,CLR,,0.00,WeatherDisplay:10.37,2013-04-23 05:32:00,
2013-04-23 01:37:00,29.1,26.0,30.62,ESE,120,0.0,0.0,88,0.00,CLR,,0.00,WeatherDisplay:10.37,2013-04-23 05:37:00,
2013-04-23 01:42:00,29.0,25.9,30.61,ESE,121,0.1,1.0,88,0.00,CLR,,0.00,WeatherDisplay:10.37,2013-04-23 05:42:00,
2013-04-23 01:47:00,29.0,25.9,30.61,ESE,120,0.4,1.2,88,0.00,CLR,,0.00,WeatherDisplay:10.37,2013-04-23 05:47:00,
2013-04-23 01:52:00,29.1,26.3,30.60,ESE,120,0.0,1.2,89,0.00,CLR,,0.00,WeatherDisplay:10.37,2013-04-23 05:52:00,
2013-04-23 01:57:00,29.1,26.3,30.60,ESE,120,0.0,0.0,89,0.00,CLR,,0.00,WeatherDisplay:10.37,2013-04-23 05:57:00,
2013-04-23 02:02:00,29.1,26.3,30.60,ESE,120,0.0,1.2,89,0.00,CLR,,0.00,WeatherDisplay:10.37,2013-04-23 06:02:00,
2013-04-23 02:07:00,29.2,26.6,30.60,ESE,120,0.1,1.2,90,0.00,CLR,,0.00,WeatherDisplay:10.37,2013-04-23 06:07:00,
2013-04-23 02:12:00,29.4,26.8,30.59,ESE,120,0.4,2.3,90,0.00,CLR,,0.00,WeatherDisplay:10.37,2013-04-23 06:12:00,
2013-04-23 02:17:00,29.5,26.9,30.59,ESE,117,1.0,2.3,90,0.00,CLR,,0.00,WeatherDisplay:10.37,2013-04-23 06:17:00,
2013-04-23 02:22:00,29.5,26.9,30.59,ESE,117,0.0,0.0,90,0.00,CLR,,0.00,WeatherDisplay:10.37,2013-04-23 06:22:00,
2013-04-23 02:27:00,29.4,26.8,30.59,ESE,118,0.0,0.0,90,0.00,CLR,,0.00,WeatherDisplay:10.37,2013-04-23 06:27:00,
2013-04-23 02:32:00,29.4,26.8,30.59,ESE,117,0.0,0.0,90,0.00,CLR,,0.00,WeatherDisplay:10.37,2013-04-23 06:32:00,
2013-04-23 02:37:00,29.2,26.6,30.59,ESE,117,0.0,0.0,90,0.00,CLR,,0.00,WeatherDisplay:10.37,2013-04-23 06:37:00,
2013-04-23 02:42:00,29.2,26.6,30.58,ESE,118,0.0,0.0,90,0.00,CLR,,0.00,WeatherDisplay:10.37,2013-04-23 06:42:00,
2013-04-23 02:47:00,29.2,26.6,30.58,ESE,118,0.0,0.0,90,0.00,CLR,,0.00,WeatherDisplay:10.37,2013-04-23 06:47:00,
2013-04-23 02:52:00,29.1,26.5,30.58,ESE,118,0.0,0.0,90,0.00,CLR,,0.00,WeatherDisplay:10.37,2013-04-23 06:52:00,
2013-04-23 02:57:00,29.0,26.4,30.58,ESE,118,0.0,1.0,90,0.00,CLR,,0.00,WeatherDisplay:10.37,2013-04-23 06:57:00,
2013-04-23 03:02:00,29.0,26.4,30.58,ESE,117,0.5,2.0,90,0.00,CLR,,0.00,WeatherDisplay:10.37,2013-04-23 07:02:00,
2013-04-23 03:07:00,29.1,26.8,30.58,North,11,1.5,2.3,91,0.00,CLR,,0.00,WeatherDisplay:10.37,2013-04-23 07:07:00,
2013-04-23 03:12:00,29.2,26.9,30.58,NNE,14,1.3,2.3,91,0.00,CLR,,0.00,WeatherDisplay:10.37,2013-04-23 07:12:00,
2013-04-23 03:17:00,29.4,27.1,30.57,NNE,14,1.2,2.3,91,0.00,CLR,,0.00,WeatherDisplay:10.37,2013-04-23 07:17:00,
2013-04-23 03:22:00,29.7,27.4,30.57,North,2,0.1,1.2,91,0.00,CLR,,0.00,WeatherDisplay:10.37,2013-04-23 07:22:00,
2013-04-23 03:27:00,29.8,27.5,30.57,North,2,0.3,1.2,91,0.00,CLR,,0.00,WeatherDisplay:10.37,2013-04-23 07:27:00,
2013-04-23 03:32:00,29.8,27.5,30.57,North,2,0.1,1.2,91,0.00,CLR,,0.00,WeatherDisplay:10.37,2013-04-23 07:32:00,
2013-04-23 03:37:00,29.8,27.5,30.57,North,2,0.0,0.0,91,0.00,CLR,,0.00,WeatherDisplay:10.37,2013-04-23 07:37:00,
2013-04-23 03:42:00,30.0,28.0,30.57,North,354,0.3,2.3,92,0.00,CLR,,0.00,WeatherDisplay:10.37,2013-04-23 07:42:00,
2013-04-23 03:47:00,30.0,28.0,30.57,North,1,0.2,2.3,92,0.00,CLR,,0.00,WeatherDisplay:10.37,2013-04-23 07:47:00,
2013-04-23 03:52:00,30.1,28.1,30.57,North,8,1.7,3.5,92,0.00,CLR,,0.00,WeatherDisplay:10.37,2013-04-23 07:52:00,
2013-04-23 03:57:00,30.3,28.3,30.56,North,8,1.2,2.3,92,0.00,CLR,,0.00,WeatherDisplay:10.37,2013-04-23 07:57:00,
2013-04-23 04:02:00,30.4,28.4,30.56,North,8,0.9,3.5,92,0.00,BKN,,0.00,WeatherDisplay:10.37,2013-04-23 08:02:00,
2013-04-23 04:07:00,30.6,28.6,30.56,North,8,1.2,2.3,92,0.00,BKN,,0.00,WeatherDisplay:10.37,2013-04-23 08:07:00,
2013-04-23 04:12:00,30.6,28.6,30.56,North,4,0.7,2.3,92,0.00,BKN,,0.00,WeatherDisplay:10.37,2013-04-23 08:12:00,
2013-04-23 04:17:00,30.7,28.7,30.56,North,4,0.7,2.3,92,0.00,BKN,,0.00,WeatherDisplay:10.37,2013-04-23 08:17:00,
2013-04-23 04:22:00,30.9,28.9,30.56,North,358,1.9,3.5,92,0.00,BKN,,0.00,WeatherDisplay:10.37,2013-04-23 08:22:00,
2013-04-23 04:27:00,31.0,28.9,30.56,NNW,340,1.5,2.3,92,0.00,BKN,,0.00,WeatherDisplay:10.37,2013-04-23 08:27:00,
2013-04-23 04:32:00,31.0,28.9,30.56,North,2,2.6,3.5,92,0.00,BKN,,0.00,WeatherDisplay:10.37,2013-04-23 08:32:00,
2013-04-23 04:37:00,31.2,29.1,30.55,North,7,1.4,2.3,92,0.00,BKN,,0.00,WeatherDisplay:10.37,2013-04-23 08:37:00,
2013-04-23 04:42:00,31.3,29.2,30.55,NNW,345,1.5,2.3,92,0.00,BKN,,0.00,WeatherDisplay:10.37,2013-04-23 08:42:00,
2013-04-23 04:47:00,31.3,29.2,30.55,North,11,1.4,2.3,92,0.00,BKN,,0.00,WeatherDisplay:10.37,2013-04-23 08:47:00,
2013-04-23 04:52:00,31.5,29.2,30.55,NE,35,1.6,2.3,91,0.00,BKN,,0.00,WeatherDisplay:10.37,2013-04-23 08:52:00,
2013-04-23 04:57:00,31.6,29.3,30.55,North,9,1.8,3.5,91,0.00,BKN,,0.00,WeatherDisplay:10.37,2013-04-23 08:57:00,
2013-04-23 05:02:00,31.6,29.3,30.54,NNE,21,1.6,3.5,91,0.00,OVC,,0.00,WeatherDisplay:10.37,2013-04-23 09:02:00,
2013-04-23 05:07:00,31.6,29.3,30.55,NNE,12,1.8,3.5,91,0.00,OVC,,0.00,WeatherDisplay:10.37,2013-04-23 09:07:00,
2013-04-23 05:12:00,31.8,29.5,30.55,North,350,1.9,3.5,91,0.00,OVC,,0.00,WeatherDisplay:10.37,2013-04-23 09:12:00,
2013-04-23 05:17:00,31.8,29.2,30.55,NNE,14,0.6,2.3,90,0.00,OVC,,0.00,WeatherDisplay:10.37,2013-04-23 09:17:00,
2013-04-23 05:22:00,31.9,29.3,30.55,NNE,22,0.5,2.3,90,0.00,OVC,,0.00,WeatherDisplay:10.37,2013-04-23 09:22:00,
2013-04-23 05:27:00,31.9,29.3,30.54,NNE,18,0.8,2.3,90,0.00,OVC,,0.00,WeatherDisplay:10.37,2013-04-23 09:27:00,
2013-04-23 05:32:00,32.1,29.5,30.54,North,8,1.9,3.5,90,0.00,OVC,,0.00,WeatherDisplay:10.37,2013-04-23 09:32:00,
2013-04-23 05:37:00,32.2,29.3,30.55,North,7,1.3,2.3,89,0.00,OVC,,0.00,WeatherDisplay:10.37,2013-04-23 09:37:00,
2013-04-23 05:42:00,32.2,29.3,30.55,NNE,14,1.2,2.3,89,0.00,OVC,,0.00,WeatherDisplay:10.37,2013-04-23 09:42:00,
2013-04-23 05:47:00,32.4,29.5,30.54,North,5,2.0,3.5,89,0.00,OVC,,0.00,WeatherDisplay:10.37,2013-04-23 09:47:00,
2013-04-23 05:52:00,32.4,29.2,30.54,NNE,18,1.7,3.5,88,0.00,OVC,,0.00,WeatherDisplay:10.37,2013-04-23 09:52:00,
2013-04-23 05:57:00,32.5,29.3,30.54,NNE,21,1.3,3.0,88,0.00,OVC,,0.00,WeatherDisplay:10.37,2013-04-23 09:57:00,
2013-04-23 06:02:00,32.6,29.4,30.54,NE,36,1.4,2.3,88,0.00,OVC,,0.00,WeatherDisplay:10.37,2013-04-23 10:02:00,
2013-04-23 06:07:00,32.6,29.2,30.54,NNE,31,1.9,3.5,87,0.00,OVC,,0.00,WeatherDisplay:10.37,2013-04-23 10:07:00,
2013-04-23 06:12:00,32.8,29.4,30.54,North,4,2.1,3.5,87,0.00,OVC,,0.00,WeatherDisplay:10.37,2013-04-23 10:12:00,
2013-04-23 06:17:00,32.9,29.2,30.55,NNE,28,0.2,2.3,86,0.00,OVC,,0.00,WeatherDisplay:10.37,2013-04-23 10:17:00,
2013-04-23 06:22:00,32.9,29.2,30.55,NE,36,2.0,4.6,86,0.00,OVC,,0.00,WeatherDisplay:10.37,2013-04-23 10:22:00,
2013-04-23 06:27:00,33.1,29.1,30.54,North,8,1.9,4.6,85,0.00,OVC,,0.00,WeatherDisplay:10.37,2013-04-23 10:27:00,
2013-04-23 06:32:00,33.2,29.2,30.54,North,2,0.1,2.3,85,0.00,OVC,,0.00,WeatherDisplay:10.37,2013-04-23 10:32:00,
2013-04-23 06:37:00,33.4,29.4,30.54,NNW,340,2.3,3.5,85,0.00,OVC,,0.00,WeatherDisplay:10.37,2013-04-23 10:37:00,
2013-04-23 06:42:00,33.4,29.4,30.54,NNE,18,1.7,2.3,85,0.00,OVC,,0.00,WeatherDisplay:10.37,2013-04-23 10:42:00,
2013-04-23 06:47:00,33.5,29.5,30.54,North,9,1.0,2.3,85,0.00,OVC,,0.00,WeatherDisplay:10.37,2013-04-23 10:47:00,
2013-04-23 06:52:00,33.7,29.4,30.54,North,9,0.7,2.3,84,0.00,OVC,,0.00,WeatherDisplay:10.37,2013-04-23 10:52:00,
2013-04-23 06:57:00,33.8,29.5,30.54,NNW,336,1.2,3.5,84,0.00,OVC,,0.00,WeatherDisplay:10.37,2013-04-23 10:57:00,
2013-04-23 07:02:00,34.1,29.8,30.54,North,11,0.3,2.3,84,0.00,OVC,,0.00,WeatherDisplay:10.37,2013-04-23 11:02:00,
2013-04-23 07:07:00,34.1,29.5,30.54,North,9,1.1,3.5,83,0.00,OVC,,0.00,WeatherDisplay:10.37,2013-04-23 11:07:00,
2013-04-23 07:12:00,34.3,29.7,30.54,North,8,0.8,3.5,83,0.00,OVC,,0.00,WeatherDisplay:10.37,2013-04-23 11:12:00,
2013-04-23 07:17:00,34.4,29.8,30.54,North,8,1.1,2.3,83,0.00,OVC,,0.00,WeatherDisplay:10.37,2013-04-23 11:17:00,
2013-04-23 07:22:00,34.6,30.0,30.54,North,8,1.3,3.5,83,0.00,OVC,,0.00,WeatherDisplay:10.37,2013-04-23 11:22:00,
2013-04-23 07:27:00,34.7,30.1,30.54,North,355,0.6,2.3,83,0.00,OVC,,0.00,WeatherDisplay:10.37,2013-04-23 11:27:00,
2013-04-23 07:32:00,34.9,30.3,30.54,North,357,1.9,4.6,83,0.00,OVC,,0.00,WeatherDisplay:10.37,2013-04-23 11:32:00,
2013-04-23 07:37:00,34.9,30.0,30.54,North,358,2.1,3.5,82,0.00,OVC,,0.00,WeatherDisplay:10.37,2013-04-23 11:37:00,
2013-04-23 07:42:00,35.0,30.1,30.54,North,5,0.9,3.5,82,0.00,OVC,,0.00,WeatherDisplay:10.37,2013-04-23 11:42:00,
2013-04-23 07:47:00,35.2,30.3,30.54,North,4,1.6,3.5,82,0.00,OVC,,0.00,WeatherDisplay:10.37,2013-04-23 11:47:00,
2013-04-23 07:52:00,35.3,30.1,30.54,North,350,1.3,2.3,81,0.00,OVC,,0.00,WeatherDisplay:10.37,2013-04-23 11:52:00,
2013-04-23 07:57:00,35.5,30.2,30.54,North,11,1.3,3.5,81,0.00,OVC,,0.00,WeatherDisplay:10.37,2013-04-23 11:57:00,
2013-04-23 08:02:00,35.6,30.0,30.54,North,350,3.5,5.8,80,0.00,OVC,,0.00,WeatherDisplay:10.37,2013-04-23 12:02:00,
2013-04-23 08:07:00,35.9,30.3,30.54,NNW,348,1.2,2.3,80,0.00,OVC,,0.00,WeatherDisplay:10.37,2013-04-23 12:07:00,
2013-04-23 08:12:00,36.0,30.4,30.54,North,9,2.2,4.6,80,0.00,OVC,,0.00,WeatherDisplay:10.37,2013-04-23 12:12:00,
2013-04-23 08:17:00,36.2,30.3,30.54,North,350,1.9,3.5,79,0.00,OVC,,0.00,WeatherDisplay:10.37,2013-04-23 12:17:00,
2013-04-23 08:22:00,36.3,30.4,30.53,NNE,14,1.8,3.5,79,0.00,OVC,,0.00,WeatherDisplay:10.37,2013-04-23 12:22:00,
2013-04-23 08:27:00,36.5,30.6,30.53,North,358,2.4,3.5,79,0.00,OVC,,0.00,WeatherDisplay:10.37,2013-04-23 12:27:00,
2013-04-23 08:32:00,36.6,31.0,30.53,North,353,2.0,3.0,80,0.00,OVC,,0.00,WeatherDisplay:10.37,2013-04-23 12:32:00,
2013-04-23 08:37:00,36.7,30.8,30.53,NNW,347,1.4,2.3,79,0.00,OVC,,0.00,WeatherDisplay:10.37,2013-04-23 12:37:00,
2013-04-23 08:42:00,36.7,31.1,30.54,North,2,0.4,2.3,80,0.00,OVC,,0.00,WeatherDisplay:10.37,2013-04-23 12:42:00,
2013-04-23 08:47:00,36.7,31.1,30.53,NNE,15,3.4,5.8,80,0.00,OVC,,0.00,WeatherDisplay:10.37,2013-04-23 12:47:00,
2013-04-23 08:52:00,36.7,31.4,30.53,North,0,1.8,3.5,81,0.00,OVC,,0.00,WeatherDisplay:10.37,2013-04-23 12:52:00,
2013-04-23 08:57:00,36.7,32.0,30.53,NNE,18,1.8,4.6,83,0.00,OVC,,0.00,WeatherDisplay:10.37,2013-04-23 12:57:00,
2013-04-23 09:02:00,36.7,32.3,30.53,North,11,1.3,3.5,84,0.00,OVC,,0.00,WeatherDisplay:10.37,2013-04-23 13:02:00,
2013-04-23 09:07:00,36.6,32.5,30.53,North,2,3.1,5.8,85,0.00,OVC,,0.00,WeatherDisplay:10.37,2013-04-23 13:07:00,
2013-04-23 09:12:00,36.3,32.5,30.53,NNE,18,3.2,4.6,86,0.00,OVC,,0.00,WeatherDisplay:10.37,2013-04-23 13:12:00,
2013-04-23 09:17:00,36.2,32.7,30.52,NNE,15,1.9,4.6,87,0.00,OVC,,0.00,WeatherDisplay:10.37,2013-04-23 13:17:00,
2013-04-23 09:22:00,36.3,33.1,30.52,North,351,0.4,1.2,88,0.00,OVC,,0.00,WeatherDisplay:10.37,2013-04-23 13:22:00,
2013-04-23 09:27:00,36.3,33.1,30.52,North,7,2.4,3.5,88,0.00,OVC,,0.00,WeatherDisplay:10.37,2013-04-23 13:27:00,
2013-04-23 09:32:00,36.3,33.4,30.52,North,351,1.9,3.5,89,0.00,OVC,,0.00,WeatherDisplay:10.37,2013-04-23 13:32:00,
2013-04-23 09:37:00,36.5,33.6,30.52,NNW,341,2.4,3.5,89,0.00,OVC,,0.00,WeatherDisplay:10.37,2013-04-23 13:37:00,
2013-04-23 09:42:00,36.5,33.6,30.52,NNW,337,0.3,1.2,89,0.00,OVC,,0.00,WeatherDisplay:10.37,2013-04-23 13:42:00,
2013-04-23 09:47:00,36.5,33.8,30.51,North,0,1.8,4.6,90,0.00,OVC,,0.00,WeatherDisplay:10.37,2013-04-23 13:47:00,
2013-04-23 09:52:00,36.5,33.8,30.51,North,1,1.5,3.5,90,0.00,OVC,,0.00,WeatherDisplay:10.37,2013-04-23 13:52:00,
2013-04-23 09:57:00,36.5,33.8,30.51,NE,38,2.1,3.5,90,0.00,OVC,,0.00,WeatherDisplay:10.37,2013-04-23 13:57:00,
2013-04-23 10:02:00,36.5,33.8,30.51,NNW,338,2.3,4.6,90,0.00,OVC,,0.00,WeatherDisplay:10.37,2013-04-23 14:02:00,
2013-04-23 10:07:00,36.5,33.8,30.51,North,351,0.5,3.5,90,0.00,OVC,,0.00,WeatherDisplay:10.37,2013-04-23 14:07:00,
2013-04-23 10:12:00,36.6,34.2,30.51,North,357,2.3,3.5,91,0.00,OVC,,0.00,WeatherDisplay:10.37,2013-04-23 14:12:00,
2013-04-23 10:17:00,36.7,34.3,30.50,North,4,2.8,5.8,91,0.00,OVC,,0.00,WeatherDisplay:10.37,2013-04-23 14:17:00,
2013-04-23 10:22:00,36.9,34.5,30.50,NNW,340,2.7,3.5,91,0.00,OVC,,0.00,WeatherDisplay:10.37,2013-04-23 14:22:00,
2013-04-23 10:27:00,37.2,34.8,30.50,NE,52,0.4,2.3,91,0.00,OVC,,0.00,WeatherDisplay:10.37,2013-04-23 14:27:00,
2013-04-23 10:32:00,37.2,34.8,30.50,North,353,1.5,3.5,91,0.00,OVC,,0.00,WeatherDisplay:10.37,2013-04-23 14:32:00,
2013-04-23 10:37:00,37.3,34.6,30.50,North,0,0.6,2.0,90,0.00,OVC,,0.00,WeatherDisplay:10.37,2013-04-23 14:37:00,
2013-04-23 10:42:00,37.5,35.1,30.50,North,1,2.0,2.3,91,0.00,OVC,,0.00,WeatherDisplay:10.37,2013-04-23 14:42:00,
2013-04-23 10:47:00,37.5,34.8,30.50,NNE,19,4.2,8.1,90,0.00,OVC,,0.00,WeatherDisplay:10.37,2013-04-23 14:47:00,
2013-04-23 10:52:00,37.6,34.7,30.50,ENE,72,4.7,5.0,89,0.00,OVC,,0.00,WeatherDisplay:10.37,2013-04-23 14:52:00,
2013-04-23 10:57:00,37.6,34.4,30.50,NNE,22,2.8,5.0,88,0.00,OVC,,0.00,WeatherDisplay:10.37,2013-04-23 14:57:00,
2013-04-23 11:02:00,37.7,33.6,30.50,ENE,69,2.3,3.5,85,0.00,OVC,,0.00,WeatherDisplay:10.37,2013-04-23 15:02:00,
2013-04-23 11:07:00,37.9,33.5,30.50,ENE,60,1.3,3.5,84,0.00,OVC,,0.00,WeatherDisplay:10.37,2013-04-23 15:07:00,
2013-04-23 11:12:00,38.2,33.5,30.50,NE,41,2.6,5.8,83,0.00,OVC,,0.00,WeatherDisplay:10.37,2013-04-23 15:12:00,
2013-04-23 11:17:00,38.2,33.5,30.50,ENE,66,1.9,3.5,83,0.00,OVC,,0.00,WeatherDisplay:10.37,2013-04-23 15:17:00,
2013-04-23 11:22:00,38.3,33.3,30.50,ENE,59,3.7,6.9,82,0.00,OVC,,0.00,WeatherDisplay:10.37,2013-04-23 15:22:00,
2013-04-23 11:27:00,38.5,33.5,30.50,NNE,18,5.2,5.8,82,0.00,OVC,,0.00,WeatherDisplay:10.37,2013-04-23 15:27:00,
2013-04-23 11:32:00,38.5,33.5,30.50,NNE,28,5.0,8.1,82,0.00,OVC,,0.00,WeatherDisplay:10.37,2013-04-23 15:32:00,
2013-04-23 11:37:00,38.6,33.6,30.50,NE,49,2.5,4.6,82,0.00,OVC,,0.00,WeatherDisplay:10.37,2013-04-23 15:37:00,
2013-04-23 11:42:00,38.6,33.6,30.49,East,80,1.5,8.1,82,0.00,OVC,,0.00,WeatherDisplay:10.37,2013-04-23 15:42:00,
2013-04-23 11:47:00,38.6,33.3,30.49,NE,48,4.1,5.8,81,0.00,OVC,,0.00,WeatherDisplay:10.37,2013-04-23 15:47:00,
2013-04-23 11:52:00,38.8,33.5,30.49,ESE,103,2.3,4.6,81,0.00,OVC,,0.00,WeatherDisplay:10.37,2013-04-23 15:52:00,
2013-04-23 11:57:00,38.9,33.9,30.49,NE,42,3.8,6.9,82,0.00,OVC,,0.00,WeatherDisplay:10.37,2013-04-23 15:57:00,
2013-04-23 12:02:00,39.0,34.0,30.48,North,4,0.3,3.0,82,0.00,OVC,,0.00,WeatherDisplay:10.37,2013-04-23 16:02:00,
2013-04-23 12:07:00,39.3,34.3,30.48,NNE,25,1.8,3.5,82,0.00,OVC,,0.00,WeatherDisplay:10.37,2013-04-23 16:07:00,
2013-04-23 12:12:00,39.3,34.3,30.48,ENE,69,2.1,3.5,82,0.00,OVC,,0.00,WeatherDisplay:10.37,2013-04-23 16:12:00,
2013-04-23 12:17:00,39.3,34.0,30.47,NNE,17,3.7,9.2,81,0.00,OVC,,0.00,WeatherDisplay:10.37,2013-04-23 16:17:00,
2013-04-23 12:22:00,39.3,33.6,30.47,ENE,57,4.6,7.0,80,0.00,OVC,,0.00,WeatherDisplay:10.37,2013-04-23 16:22:00,
2013-04-23 12:27:00,39.3,33.6,30.47,ESE,103,3.5,7.0,80,0.00,OVC,,0.00,WeatherDisplay:10.37,2013-04-23 16:27:00,
2013-04-23 12:32:00,39.3,33.6,30.47,ENE,57,1.3,5.8,80,0.00,OVC,,0.00,WeatherDisplay:10.37,2013-04-23 16:32:00,
2013-04-23 12:37:00,39.3,34.0,30.47,NE,52,3.9,5.0,81,0.00,OVC,,0.00,WeatherDisplay:10.37,2013-04-23 16:37:00,
2013-04-23 12:42:00,39.3,34.0,30.47,ENE,67,4.2,5.8,81,0.00,OVC,,0.00,WeatherDisplay:10.37,2013-04-23 16:42:00,
2013-04-23 12:47:00,39.5,34.2,30.46,NNE,21,7.8,11.5,81,0.00,OVC,,0.00,WeatherDisplay:10.37,2013-04-23 16:47:00,
2013-04-23 12:52:00,39.5,34.5,30.46,North,357,3.3,4.6,82,0.00,OVC,,0.00,WeatherDisplay:10.37,2013-04-23 16:52:00,
2013-04-23 12:57:00,39.6,34.2,30.46,NNE,31,4.1,5.8,81,0.00,OVC,,0.00,WeatherDisplay:10.37,2013-04-23 16:57:00,
2013-04-23 13:02:00,39.6,34.2,30.45,ENE,77,2.2,3.5,81,0.00,OVC,,0.00,WeatherDisplay:10.37,2013-04-23 17:02:00,
2013-04-23 13:07:00,39.8,34.4,30.45,NNE,28,8.0,12.7,81,0.00,OVC,,0.00,WeatherDisplay:10.37,2013-04-23 17:07:00,
2013-04-23 13:12:00,39.8,34.4,30.45,NE,52,2.4,6.9,81,0.00,OVC,,0.00,WeatherDisplay:10.37,2013-04-23 17:12:00,
2013-04-23 13:17:00,39.8,34.4,30.45,NNE,32,4.2,7.0,81,0.00,OVC,,0.00,WeatherDisplay:10.37,2013-04-23 17:17:00,
2013-04-23 13:22:00,39.9,34.5,30.45,NE,53,6.9,10.4,81,0.00,OVC,,0.00,WeatherDisplay:10.37,2013-04-23 17:22:00,
2013-04-23 13:27:00,39.9,34.5,30.44,ENE,63,3.3,3.5,81,0.00,OVC,,0.00,WeatherDisplay:10.37,2013-04-23 17:27:00,
2013-04-23 13:32:00,39.8,34.1,30.44,ENE,63,2.6,11.5,80,0.00,OVC,,0.00,WeatherDisplay:10.37,2013-04-23 17:32:00,
2013-04-23 13:37:00,39.8,34.4,30.44,NE,53,3.2,5.8,81,0.00,OVC,,0.00,WeatherDisplay:10.37,2013-04-23 17:37:00,
2013-04-23 13:42:00,39.9,34.5,30.44,East,81,2.6,4.6,81,0.00,OVC,,0.00,WeatherDisplay:10.37,2013-04-23 17:42:00,
2013-04-23 13:47:00,39.9,34.5,30.44,NE,53,4.0,7.0,81,0.00,OVC,,0.00,WeatherDisplay:10.37,2013-04-23 17:47:00,
2013-04-23 13:52:00,39.9,34.5,30.44,NNE,17,4.7,7.0,81,0.00,OVC,,0.00,WeatherDisplay:10.37,2013-04-23 17:52:00,
2013-04-23 13:57:00,39.9,34.5,30.43,East,83,5.9,8.1,81,0.00,OVC,,0.00,WeatherDisplay:10.37,2013-04-23 17:57:00,
2013-04-23 14:02:00,39.9,34.9,30.43,NNE,17,3.7,6.9,82,0.00,OVC,,0.00,WeatherDisplay:10.37,2013-04-23 18:02:00,
2013-04-23 14:07:00,39.9,34.9,30.43,ENE,57,3.3,3.5,82,0.00,OVC,,0.00,WeatherDisplay:10.37,2013-04-23 18:07:00,
2013-04-23 14:12:00,40.0,35.3,30.43,ENE,69,4.6,6.0,83,0.00,OVC,,0.00,WeatherDisplay:10.37,2013-04-23 18:12:00,
2013-04-23 14:17:00,39.9,35.2,30.42,ESE,110,1.2,3.5,83,0.00,OVC,,0.00,WeatherDisplay:10.37,2013-04-23 18:17:00,
2013-04-23 14:22:00,40.0,35.3,30.42,ENE,59,2.0,4.6,83,0.00,OVC,,0.00,WeatherDisplay:10.37,2013-04-23 18:22:00,
2013-04-23 14:27:00,40.2,35.4,30.42,ENE,74,2.2,5.0,83,0.00,OVC,,0.00,WeatherDisplay:10.37,2013-04-23 18:27:00,
2013-04-23 14:32:00,40.2,35.4,30.41,ENE,63,2.8,8.1,83,0.00,OVC,,0.00,WeatherDisplay:10.37,2013-04-23 18:32:00,
2013-04-23 14:37:00,40.0,35.3,30.41,ENE,63,0.1,3.5,83,0.00,OVC,,0.00,WeatherDisplay:10.37,2013-04-23 18:37:00,
2013-04-23 14:42:00,40.2,35.8,30.41,ESE,111,1.2,3.5,84,0.00,OVC,,0.00,WeatherDisplay:10.37,2013-04-23 18:42:00,
2013-04-23 14:47:00,40.3,35.8,30.41,NE,36,1.1,3.5,84,0.00,OVC,,0.00,WeatherDisplay:10.37,2013-04-23 18:47:00,
2013-04-23 14:52:00,40.3,36.1,30.41,NE,36,0.5,3.5,85,0.00,OVC,,0.00,WeatherDisplay:10.37,2013-04-23 18:52:00,
2013-04-23 14:57:00,40.3,35.8,30.41,NE,46,2.3,4.6,84,0.00,OVC,,0.00,WeatherDisplay:10.37,2013-04-23 18:57:00,
2013-04-23 15:02:00,40.5,36.3,30.41,NE,50,0.7,6.9,85,0.00,OVC,,0.00,WeatherDisplay:10.37,2013-04-23 19:02:00,
2013-04-23 15:07:00,40.3,35.8,30.41,NE,45,4.8,5.8,84,0.00,OVC,,0.00,WeatherDisplay:10.37,2013-04-23 19:07:00,
2013-04-23 15:12:00,40.2,36.1,30.40,ENE,62,3.3,5.8,85,0.00,OVC,,0.00,WeatherDisplay:10.37,2013-04-23 19:12:00,
2013-04-23 15:17:00,40.3,36.1,30.39,ENE,66,2.5,5.8,85,0.00,OVC,,0.00,WeatherDisplay:10.37,2013-04-23 19:17:00,
2013-04-23 15:22:00,40.2,36.1,30.39,ENE,65,1.2,6.9,85,0.00,OVC,,0.00,WeatherDisplay:10.37,2013-04-23 19:22:00,
2013-04-23 15:27:00,40.2,36.1,30.39,ENE,74,2.4,5.0,85,0.00,OVC,,0.00,WeatherDisplay:10.37,2013-04-23 19:27:00,
2013-04-23 15:32:00,40.3,36.4,30.38,NE,38,1.8,3.5,86,0.00,OVC,,0.00,WeatherDisplay:10.37,2013-04-23 19:32:00,
2013-04-23 15:37:00,40.3,36.4,30.38,ENE,69,2.4,4.6,86,0.00,OVC,,0.00,WeatherDisplay:10.37,2013-04-23 19:37:00,
2013-04-23 15:42:00,40.3,36.4,30.38,North,4,2.1,3.5,86,0.00,OVC,,0.00,WeatherDisplay:10.37,2013-04-23 19:42:00,
2013-04-23 15:47:00,40.3,36.1,30.38,North,1,4.0,6.0,85,0.00,OVC,,0.00,WeatherDisplay:10.37,2013-04-23 19:47:00,
2013-04-23 15:52:00,40.3,36.4,30.38,NNE,21,5.3,6.9,86,0.00,OVC,,0.00,WeatherDisplay:10.37,2013-04-23 19:52:00,
2013-04-23 15:57:00,40.5,36.6,30.38,NNE,32,3.3,3.5,86,0.00,OVC,,0.00,WeatherDisplay:10.37,2013-04-23 19:57:00,
2013-04-23 16:02:00,40.5,36.6,30.38,NNE,22,5.4,10.4,86,0.00,OVC,,0.00,WeatherDisplay:10.37,2013-04-23 20:02:00,
2013-04-23 16:07:00,40.5,36.6,30.38,NE,38,1.6,5.8,86,0.00,OVC,,0.00,WeatherDisplay:10.37,2013-04-23 20:07:00,
2013-04-23 16:12:00,40.5,36.6,30.37,North,9,7.6,7.6,86,0.00,OVC,,0.00,WeatherDisplay:10.37,2013-04-23 20:12:00,
2013-04-23 16:17:00,40.5,36.6,30.37,ENE,63,4.3,12.7,86,0.00,OVC,,0.00,WeatherDisplay:10.37,2013-04-23 20:17:00,
2013-04-23 16:22:00,40.5,36.6,30.37,SE,132,4.0,8.1,86,0.00,OVC,,0.00,WeatherDisplay:10.37,2013-04-23 20:22:00,
2013-04-23 16:27:00,40.5,36.6,30.37,ENE,66,3.5,10.4,86,0.00,OVC,,0.00,WeatherDisplay:10.37,2013-04-23 20:27:00,
2013-04-23 16:32:00,40.6,36.7,30.37,North,7,2.7,8.1,86,0.00,OVC,,0.00,WeatherDisplay:10.37,2013-04-23 20:32:00,
2013-04-23 16:37:00,40.6,36.7,30.37,NNE,28,5.4,5.8,86,0.00,OVC,,0.00,WeatherDisplay:10.37,2013-04-23 20:37:00,
2013-04-23 16:42:00,40.8,36.9,30.37,North,9,1.9,4.6,86,0.00,OVC,,0.00,WeatherDisplay:10.37,2013-04-23 20:42:00,
2013-04-23 16:47:00,40.8,36.9,30.36,NNE,17,4.9,6.0,86,0.00,OVC,,0.00,WeatherDisplay:10.37,2013-04-23 20:47:00,
2013-04-23 16:52:00,40.8,36.9,30.36,NE,55,4.7,7.0,86,0.00,OVC,,0.00,WeatherDisplay:10.37,2013-04-23 20:52:00,
2013-04-23 16:57:00,40.8,37.2,30.36,ENE,63,5.1,5.1,87,0.00,OVC,,0.00,WeatherDisplay:10.37,2013-04-23 20:57:00,
2013-04-23 17:02:00,40.6,37.0,30.36,NE,52,0.5,4.6,87,0.00,OVC,,0.00,WeatherDisplay:10.37,2013-04-23 21:02:00,
2013-04-23 17:07:00,40.6,37.0,30.36,NE,48,2.5,4.6,87,0.00,OVC,,0.00,WeatherDisplay:10.37,2013-04-23 21:07:00,
2013-04-23 17:12:00,40.6,37.0,30.36,NE,53,1.6,3.5,87,0.00,OVC,,0.00,WeatherDisplay:10.37,2013-04-23 21:12:00,
2013-04-23 17:17:00,40.6,37.0,30.36,East,93,2.2,5.8,87,0.00,OVC,,0.00,WeatherDisplay:10.37,2013-04-23 21:17:00,
2013-04-23 17:22:00,40.6,37.0,30.36,ENE,59,3.2,6.9,87,0.00,OVC,,0.00,WeatherDisplay:10.37,2013-04-23 21:22:00,
2013-04-23 17:27:00,40.5,36.9,30.36,ENE,69,2.9,5.8,87,0.00,OVC,,0.00,WeatherDisplay:10.37,2013-04-23 21:27:00,
2013-04-23 17:32:00,40.5,36.6,30.36,NE,46,5.1,6.9,86,0.00,OVC,,0.00,WeatherDisplay:10.37,2013-04-23 21:32:00,
2013-04-23 17:37:00,40.5,36.6,30.36,East,83,4.0,10.4,86,0.00,OVC,,0.00,WeatherDisplay:10.37,2013-04-23 21:37:00,
2013-04-23 17:42:00,40.5,36.6,30.35,East,91,3.9,4.6,86,0.00,OVC,,0.00,WeatherDisplay:10.37,2013-04-23 21:42:00,
2013-04-23 17:47:00,40.5,36.6,30.34,NE,35,3.3,6.9,86,0.00,OVC,,0.00,WeatherDisplay:10.37,2013-04-23 21:47:00,
2013-04-23 17:52:00,40.6,36.7,30.34,NNE,32,2.4,3.0,86,0.00,OVC,,0.00,WeatherDisplay:10.37,2013-04-23 21:52:00,
2013-04-23 17:57:00,40.6,36.7,30.34,NE,36,2.2,3.5,86,0.00,OVC,,0.00,WeatherDisplay:10.37,2013-04-23 21:57:00,
2013-04-23 18:02:00,40.6,36.7,30.34,NE,48,2.7,5.8,86,0.00,OVC,,0.00,WeatherDisplay:10.37,2013-04-23 22:02:00,
2013-04-23 18:07:00,40.6,36.7,30.34,NE,53,2.5,3.5,86,0.00,OVC,,0.00,WeatherDisplay:10.37,2013-04-23 22:07:00,
2013-04-23 18:12:00,40.5,36.6,30.34,East,86,5.9,8.0,86,0.00,OVC,,0.00,WeatherDisplay:10.37,2013-04-23 22:12:00,
2013-04-23 18:17:00,40.5,36.6,30.33,NE,52,4.4,6.9,86,0.00,OVC,,0.00,WeatherDisplay:10.37,2013-04-23 22:17:00,
2013-04-23 18:22:00,40.5,36.6,30.33,ENE,60,5.8,6.0,86,0.00,OVC,,0.00,WeatherDisplay:10.37,2013-04-23 22:22:00,
2013-04-23 18:27:00,40.3,36.4,30.33,NNE,21,5.5,8.1,86,0.00,OVC,,0.00,WeatherDisplay:10.37,2013-04-23 22:27:00,
2013-04-23 18:32:00,40.3,36.4,30.33,North,1,1.9,3.5,86,0.00,OVC,,0.00,WeatherDisplay:10.37,2013-04-23 22:32:00,
2013-04-23 18:37:00,40.3,36.4,30.33,NE,42,1.8,5.0,86,0.00,OVC,,0.00,WeatherDisplay:10.37,2013-04-23 22:37:00,
2013-04-23 18:42:00,40.3,36.4,30.33,NNE,18,5.2,10.4,86,0.00,OVC,,0.00,WeatherDisplay:10.37,2013-04-23 22:42:00,
2013-04-23 18:47:00,40.3,36.4,30.33,North,4,4.8,6.9,86,0.00,OVC,,0.00,WeatherDisplay:10.37,2013-04-23 22:47:00,
2013-04-23 18:52:00,40.3,36.1,30.33,NE,48,3.4,8.1,85,0.00,OVC,,0.00,WeatherDisplay:10.37,2013-04-23 22:52:00,
2013-04-23 18:57:00,40.3,36.1,30.33,North,8,2.6,4.6,85,0.00,OVC,,0.00,WeatherDisplay:10.37,2013-04-23 22:57:00,
2013-04-23 19:02:00,40.3,36.1,30.32,NNE,32,2.8,6.9,85,0.00,OVC,,0.00,WeatherDisplay:10.37,2013-04-23 23:02:00,
2013-04-23 19:07:00,40.2,36.1,30.32,NE,41,2.4,6.9,85,0.00,OVC,,0.00,WeatherDisplay:10.37,2013-04-23 23:07:00,
2013-04-23 19:12:00,40.2,36.1,30.32,North,9,7.9,13.8,85,0.00,OVC,,0.00,WeatherDisplay:10.37,2013-04-23 23:12:00,
2013-04-23 19:17:00,40.2,36.1,30.31,East,86,3.7,5.8,85,0.00,OVC,,0.00,WeatherDisplay:10.37,2013-04-23 23:17:00,
2013-04-23 19:22:00,40.2,36.1,30.31,NE,46,2.6,4.6,85,0.00,OVC,,0.00,WeatherDisplay:10.37,2013-04-23 23:22:00,
2013-04-23 19:27:00,40.2,36.1,30.31,NE,43,4.6,5.8,85,0.00,OVC,,0.00,WeatherDisplay:10.37,2013-04-23 23:27:00,
2013-04-23 19:32:00,40.2,36.1,30.31,NE,52,1.8,4.6,85,0.00,OVC,,0.00,WeatherDisplay:10.37,2013-04-23 23:32:00,
2013-04-23 19:38:00,40.2,36.3,30.31,NNE,18,3.0,5.8,86,0.00,OVC,,0.00,WeatherDisplay:10.37,2013-04-23 23:38:00,
2013-04-23 19:43:00,40.0,36.2,30.31,North,353,4.8,8.1,86,0.00,OVC,,0.00,WeatherDisplay:10.37,2013-04-23 23:43:00,
2013-04-23 19:48:00,40.0,36.2,30.31,NE,53,3.6,6.9,86,0.00,OVC,,0.00,WeatherDisplay:10.37,2013-04-23 23:48:00,
2013-04-23 19:53:00,40.0,36.2,30.31,NNE,26,2.2,3.5,86,0.00,OVC,,0.00,WeatherDisplay:10.37,2013-04-23 23:53:00,
2013-04-23 19:58:00,40.0,36.2,30.31,North,7,1.9,4.6,86,0.00,OVC,,0.00,WeatherDisplay:10.37,2013-04-23 23:58:00,
2013-04-23 20:03:00,40.0,36.2,30.30,NNE,22,2.5,4.6,86,0.00,OVC,,0.00,WeatherDisplay:10.37,2013-04-24 00:03:00,
2013-04-23 20:08:00,40.0,36.2,30.30,NNE,28,2.5,3.5,86,0.00,OVC,,0.00,WeatherDisplay:10.37,2013-04-24 00:08:00,
2013-04-23 20:13:00,40.0,36.2,30.29,ENE,77,3.7,5.8,86,0.00,OVC,,0.00,WeatherDisplay:10.37,2013-04-24 00:13:00,
2013-04-23 20:18:00,40.0,36.2,30.28,NNE,33,4.0,6.9,86,0.00,OVC,,0.00,WeatherDisplay:10.37,2013-04-24 00:18:00,
2013-04-23 20:23:00,40.2,36.6,30.28,ENE,69,1.7,3.5,87,0.00,OVC,,0.00,WeatherDisplay:10.37,2013-04-24 00:23:00,
2013-04-23 20:28:00,40.2,36.6,30.28,ENE,60,1.0,2.3,87,0.00,OVC,,0.00,WeatherDisplay:10.37,2013-04-24 00:28:00,
2013-04-23 20:33:00,40.2,36.6,30.28,NE,41,2.8,5.0,87,0.00,OVC,,0.00,WeatherDisplay:10.37,2013-04-24 00:33:00,
2013-04-23 20:38:00,40.2,36.6,30.28,NNW,329,2.6,4.6,87,0.00,OVC,,0.00,WeatherDisplay:10.37,2013-04-24 00:38:00,
2013-04-23 20:43:00,40.2,36.6,30.28,NNE,17,2.9,4.6,87,0.00,OVC,,0.00,WeatherDisplay:10.37,2013-04-24 00:43:00,
2013-04-23 20:48:00,40.2,36.6,30.28,NNW,327,4.1,5.8,87,0.00,OVC,,0.00,WeatherDisplay:10.37,2013-04-24 00:48:00,
2013-04-23 20:53:00,40.2,36.9,30.28,North,1,4.2,6.9,88,0.00,OVC,,0.00,WeatherDisplay:10.37,2013-04-24 00:53:00,
2013-04-23 20:58:00,40.2,36.9,30.28,NNW,334,5.0,5.8,88,0.00,OVC,,0.00,WeatherDisplay:10.37,2013-04-24 00:58:00,
2013-04-23 21:03:00,40.2,36.9,30.28,NNW,331,4.5,6.9,88,0.00,OVC,,0.00,WeatherDisplay:10.37,2013-04-24 01:03:00,
2013-04-23 21:08:00,40.3,37.0,30.28,NNW,327,3.8,8.1,88,0.00,OVC,,0.00,WeatherDisplay:10.37,2013-04-24 01:08:00,
2013-04-23 21:13:00,40.3,37.0,30.28,NNW,330,3.0,4.6,88,0.00,OVC,,0.00,WeatherDisplay:10.37,2013-04-24 01:13:00,
2013-04-23 21:18:00,40.3,37.0,30.28,North,5,2.1,3.5,88,0.00,OVC,,0.00,WeatherDisplay:10.37,2013-04-24 01:18:00,
2013-04-23 21:23:00,40.3,37.0,30.28,NNE,15,2.6,4.6,88,0.00,OVC,,0.00,WeatherDisplay:10.37,2013-04-24 01:23:00,
2013-04-23 21:28:00,40.3,37.0,30.28,North,0,2.4,4.6,88,0.00,OVC,,0.00,WeatherDisplay:10.37,2013-04-24 01:28:00,
2013-04-23 21:33:00,40.3,37.0,30.27,NE,43,1.8,3.5,88,0.00,OVC,,0.00,WeatherDisplay:10.37,2013-04-24 01:33:00,
2013-04-23 21:38:00,40.2,37.2,30.26,North,353,0.8,2.3,89,0.00,OVC,,0.00,WeatherDisplay:10.37,2013-04-24 01:38:00,
2013-04-23 21:43:00,40.2,37.2,30.26,North,4,1.8,3.5,89,0.00,OVC,,0.00,WeatherDisplay:10.37,2013-04-24 01:43:00,
2013-04-23 21:48:00,40.2,37.5,30.26,NNE,14,1.4,2.3,90,0.00,OVC,,0.00,WeatherDisplay:10.37,2013-04-24 01:48:00,
2013-04-23 21:53:00,40.2,37.5,30.26,NNE,24,1.4,3.5,90,0.00,OVC,,0.00,WeatherDisplay:10.37,2013-04-24 01:53:00,
2013-04-23 21:58:00,40.0,37.3,30.26,NNE,19,2.6,4.0,90,0.00,OVC,,0.00,WeatherDisplay:10.37,2013-04-24 01:58:00,
2013-04-23 22:03:00,40.0,37.6,30.25,NNW,337,2.3,3.5,91,0.00,OVC,,0.00,WeatherDisplay:10.37,2013-04-24 02:03:00,
2013-04-23 22:08:00,40.0,37.6,30.25,North,357,2.6,5.8,91,0.00,OVC,,0.00,WeatherDisplay:10.37,2013-04-24 02:08:00,
2013-04-23 22:13:00,40.0,37.6,30.25,NNW,345,2.2,4.6,91,0.00,OVC,,0.00,WeatherDisplay:10.37,2013-04-24 02:13:00,
2013-04-23 22:18:00,40.0,37.6,30.25,NNW,327,2.1,4.6,91,0.00,OVC,,0.00,WeatherDisplay:10.37,2013-04-24 02:18:00,
2013-04-23 22:23:00,40.0,37.9,30.25,North,353,1.8,4.6,92,0.00,OVC,,0.00,WeatherDisplay:10.37,2013-04-24 02:23:00,
2013-04-23 22:29:00,40.0,37.9,30.24,NNW,348,1.6,4.6,92,0.00,OVC,,0.00,WeatherDisplay:10.37,2013-04-24 02:29:00,
2013-04-23 22:34:00,40.0,37.9,30.25,North,353,2.1,6.0,92,0.00,OVC,,0.00,WeatherDisplay:10.37,2013-04-24 02:34:00,
2013-04-23 22:39:00,40.0,37.9,30.25,NNW,333,2.5,3.5,92,0.00,OVC,,0.00,WeatherDisplay:10.37,2013-04-24 02:39:00,
2013-04-23 22:44:00,40.2,38.1,30.25,NNW,329,5.5,8.1,92,0.00,OVC,,0.00,WeatherDisplay:10.37,2013-04-24 02:44:00,
2013-04-23 22:50:00,40.2,38.1,30.25,North,1,4.9,10.4,92,0.00,OVC,,0.00,WeatherDisplay:10.37,2013-04-24 02:50:00,
2013-04-23 22:56:00,40.2,38.1,30.25,NNW,334,2.7,11.5,92,0.00,OVC,,0.00,WeatherDisplay:10.37,2013-04-24 02:56:00,
2013-04-23 23:01:00,40.2,38.1,30.24,North,4,3.8,10.4,92,0.00,OVC,,0.00,WeatherDisplay:10.37,2013-04-24 03:01:00,
2013-04-23 23:06:00,40.2,38.1,30.24,North,0,4.4,6.9,92,0.00,OVC,,0.00,WeatherDisplay:10.37,2013-04-24 03:06:00,
2013-04-23 23:12:00,40.2,38.1,30.23,North,351,3.8,11.5,92,0.00,OVC,,0.00,WeatherDisplay:10.37,2013-04-24 03:12:00,
2013-04-23 23:17:00,40.2,38.1,30.22,North,2,4.8,7.0,92,0.00,OVC,,0.00,WeatherDisplay:10.37,2013-04-24 03:17:00,
2013-04-23 23:22:00,40.2,38.1,30.22,ENE,60,3.0,6.9,92,0.00,OVC,,0.00,WeatherDisplay:10.37,2013-04-24 03:22:00,
2013-04-23 23:27:00,40.2,38.1,30.22,NNW,337,1.6,4.6,92,0.00,OVC,,0.00,WeatherDisplay:10.37,2013-04-24 03:27:00,
2013-04-23 23:32:00,40.2,38.1,30.20,NNE,14,0.8,4.6,92,0.00,OVC,,0.00,WeatherDisplay:10.37,2013-04-24 03:32:00,
2013-04-23 23:38:00,40.2,38.1,30.20,North,0,1.1,3.5,92,0.00,OVC,,0.00,WeatherDisplay:10.37,2013-04-24 03:38:00,
2013-04-23 23:44:00,40.2,38.1,30.19,NW,326,2.8,4.6,92,0.00,OVC,,0.00,WeatherDisplay:10.37,2013-04-24 03:44:00,
2013-04-23 23:49:00,40.3,38.2,30.18,NNE,28,3.4,5.8,92,0.00,OVC,,0.00,WeatherDisplay:10.37,2013-04-24 03:49:00,
2013-04-23 23:55:00,40.3,38.2,30.18,NNE,18,0.7,3.0,92,0.00,OVC,,0.00,WeatherDisplay:10.37,2013-04-24 03:55:00,